Regional Weather Roundup
Issued by NWS

Home | Current Version | Previous Version | Graphics & Text | Print | Product List | Glossary On
Versions: 1 2 3 4 5 6 7 8 9 10 11 12 13 14 15 16 17 18 19 20 21 22 23 24 25 26 27 28 29 30 31 32 33 34 35 36 37 38 39 40 41 42 43 44 45 46 47 48 49 50
000
ASUS45 KABQ 181101
RWRNM
NEW MEXICO REGIONAL WEATHER ROUNDUP
NATIONAL WEATHER SERVICE ALBUQUERQUE NM
500 AM MDT WED OCT 18 2017

NOTE: "FAIR" MEANS FEW OR NO CLOUDS BELOW 12,000 FEET AGL WITH NO
       SIGNIFICANT WEATHER OR OBSTRUCTIONS TO VISION.

      THIS PRODUCT IS RELEASED AS TWO VERSIONS.  ONE VERSION NEAR
      THE TOP OF THE HOUR CONTAINING PRELIMINARY DATA FROM ALBUQUERQUE
      AND OTHER STATIONS.  A FINAL VERSION WITH ADDITIONAL DATA IS
      ISSUED ABOUT 10 MINUTES AFTER THE HOUR.

NMZ501-503-504-510>518-181200-
NORTHWEST PLATEAU/NORTHCENTRAL MOUNTAINS

CITY           SKY/WX    TMP DP  RH WIND       PRES   REMARKS
FARMINGTON     FAIR      35  32  88 E7        30.22S WCI  29
LOS ALAMOS     FAIR      52  10  18 CALM      30.29R
SANTA FE       FAIR      43  22  43 N17       30.23R
TAOS           FAIR      29  17  61 N8        30.31S WCI  21
ANGEL FIRE     FAIR      17  13  85 CALM      30.36S

$$
NMZ402-403-502-505>509-181200-
WESTCENTRAL MOUNTAINS/SOUTHWEST MOUNTAINS

CITY           SKY/WX    TMP DP  RH WIND       PRES   REMARKS
GALLUP         FAIR      34  16  47 CALM      30.27F
GRANTS         FAIR      34  17  49 W12G21    30.30R WCI  25
SILVER CITY    FAIR      55  44  64 N8        30.19S

$$
NMZ407-409-411-412-181200-
SOUTHERN DESERTS

CITY           SKY/WX    TMP DP  RH WIND       PRES   REMARKS
DEMING         FAIR      55  41  59 CALM      30.13S
LAS CRUCES     FAIR      57  45  64 W5        30.14S
ALAMOGORDO     FAIR      50  36  57 S6        30.13S
T OR C         FAIR      59  38  45 W8        30.14S

$$
NMZ519>523-181200-
CENTRAL VALLEYS/CENTRAL HIGHLANDS

CITY           SKY/WX    TMP DP  RH WIND       PRES   REMARKS
ALBUQUERQUE    FAIR      50  21  32 NE5       30.20R
MORIARTY ARPT  FAIR      35  29  79 NW5       30.23S WCI  31
CLINES CORNERS FAIR      42  18  37 NW13      30.24F
BELEN          FAIR      44  28  53 CALM      30.20R
SOCORRO        FAIR      51  32  48 NW13      30.18S

$$
NMZ524>526-539-540-181200-
SOUTHCENTRAL MOUNTAINS

CITY           SKY/WX    TMP DP  RH WIND       PRES   REMARKS
RUIDOSO        FAIR      54  36  50 W7        30.27S

$$
NMZ527>531-181200-
NORTHEAST HIGHLANDS/NORTHEAST PLAINS

CITY           SKY/WX    TMP DP  RH WIND       PRES   REMARKS
LAS VEGAS      FAIR      47  32  56 N7        30.19S
RATON          FAIR      37  24  59 NE8       30.16R WCI  31
CLAYTON        FAIR      50  28  42 NW10      30.07R

$$
NMZ532>537-181200-
EASTCENTRAL PLAINS

CITY           SKY/WX    TMP DP  RH WIND       PRES   REMARKS
SANTA ROSA     FAIR      50  25  37 W6        30.09S
TUCUMCARI      FAIR      47  33  58 W9        30.02F
CANNON AFB     FAIR      52  47  83 W9        30.09S
CLOVIS AIRPORT FAIR      50  43  77 W10       30.08F

$$
NMZ028-029-538-181200-
SOUTHEAST PLAINS

CITY           SKY/WX    TMP DP  RH WIND       PRES   REMARKS
ROSWELL        FAIR      51  43  74 W6        30.08S
ARTESIA        FAIR      52  43  71 CALM      30.09R
CARLSBAD       FAIR      49  46  90 CALM      30.07R
HOBBS          FAIR      50  43  76 W6        30.09S


$$




USA.gov is the U.S. government's official web portal to all federal, state and local government web resources and services.